H-2A DEB, 43069

Orbit data source: Space-Track

H-2A DEB, 43069 is space debris in SSO originally from a launch on Sat, 23 Dec 2017 UTC launched from the Tanegashima Space Center (TNSTA). Debris objects in space refer to the collection of defunct objects orbiting the Earth. Examples of debris include non-operational satellites, rocket bodies, and fragments generated from explosions, collisions, or faulty payload assembly.

Loading next visibility...
Identifier
43069, 2017-082E
Orbit
SSO
Country
Flag of JPJP / JPN
Related business
Manufacturer
MELCO
Mission
Spacecraft
Bus & Motor
Unknown
Mass
Unknown
Launch date (UTC)
2017-12-23 (8 years ago)
Launch vehicle
Unknown
Launch site
Tanegashima Space Center (TNSTA)
Object type
Payload
Rocket body
Debris
Shape & HBR
Unknown shape, 0.1 m
Radar Cross Section
Small (<0.1 m²)

Expand to show TLE details & history
Last TLE update: 6 hours ago

TLE from 6 hours ago
0 H-2A DEB
1 43069U 17082E   25306.43970889  .00005115  00000-0  11916-2 0  9996
2 43069  98.2748  10.9589 0025022 114.9273 245.4528 14.55050878413733
Epoch: 2025-11-02T10:33Z
TLE epoch observation values (Epoch: 2025-11-02T10:33:10.848Z)
Latitude
-0.00002°
Longitude
170.70829°
Altitude
719.581 km
Speed
7.492 km/s
True Right ascension
00h 43m 50s
True Declination
0° 00' 00"
Sunlit
Object was in full shadow at epoch
Visualization orbit readout
Latitude
Unknown
Longitude
Unknown
Altitude
Unknown
Speed
Unknown
Apparent Right ascension
Unknown
Apparent Declination
Unknown
Sunlit
N/A
Visualization observer readout
Local Sidereal Time
12:45:37
Azimuth
Unknown
Elevation
Unknown
Doppler factor
Unknown
Orbital elements
Apogee altitude
724.017 km
Perigee altitude
688.564 km
Semi-major axis
7,084.428 km
Eccentricity
0.0025
Inclination
98.2748°
RAAN
10.9589°
Arg. of periapsis
114.9273°
True anomaly
245.19232°
Mean anomaly
245.4528°
Eccentric anomaly
245.32253°
Mean motion
3.63987 °/min
Orbital period
98.9 mins
BSTAR
0.0011916
Loading maneuver chart data...
Computing Atmospheric mass density...
Loading historical data...
Loading historical data...
Loading historical data...
Loading historical data...
Loading historical data...
Loading historical data...
Loading historical data...
Other satellites on launch #82 in the year 2017 (2017-12-23 UTC)

Documentation

Showing up to 5 results
|